DLH249 LIMC-EDDF

Flight info

Callsign DLH249
Flight time 0h 59m
Altitude 32000
Route PEPAG DCT ABESI N851 UTAVO DCT ROLSA DCT LADOL T163 EMPAX EMPAX5B
Aircraft A320/M-SDE2E3FGIJ1LORWXYZ/HB1

Departure

Time 2026-05-05 09:34
Airport Milan Malpensa International Airport (LIMC)

Arrival

Time 2026-05-05 10:34
Airport Frankfurt Main Airport (EDDF)
Time Latitude Longitude Altitude Speed Heading
2026-05-05 08:31 45.63012 8.71547 739 ft 0 kts 349°
2026-05-05 08:40 45.63012 8.71548 739 ft 0 kts 349°
2026-05-05 08:40 45.63012 8.71547 739 ft 0 kts 349°
2026-05-05 08:41 45.63012 8.71548 739 ft 0 kts 349°
2026-05-05 08:42 45.63012 8.71547 739 ft 0 kts 349°
2026-05-05 08:43 45.63012 8.71548 739 ft 0 kts 349°
2026-05-05 08:43 45.63012 8.71547 739 ft 0 kts 349°
2026-05-05 08:43 45.63012 8.71548 739 ft 0 kts 349°
2026-05-05 08:43 45.63012 8.71547 739 ft 0 kts 349°
2026-05-05 08:44 45.63012 8.71548 739 ft 0 kts 349°
2026-05-05 08:44 45.63012 8.71547 739 ft 0 kts 349°
2026-05-05 08:45 45.63012 8.71548 739 ft 0 kts 349°
2026-05-05 08:45 45.63012 8.71547 739 ft 0 kts 349°
2026-05-05 08:46 45.63012 8.71548 739 ft 0 kts 349°
2026-05-05 08:46 45.63012 8.71547 739 ft 0 kts 349°
2026-05-05 08:47 45.63012 8.71548 739 ft 0 kts 349°
2026-05-05 08:48 45.63012 8.71547 739 ft 0 kts 349°
2026-05-05 08:48 45.63012 8.71548 739 ft 0 kts 349°
2026-05-05 08:49 45.63012 8.71547 739 ft 0 kts 349°
2026-05-05 08:49 45.63012 8.71548 739 ft 0 kts 349°
2026-05-05 08:49 45.63012 8.71547 739 ft 0 kts 349°
2026-05-05 08:50 45.63012 8.71548 739 ft 0 kts 349°
2026-05-05 08:50 45.63012 8.71547 739 ft 0 kts 349°
2026-05-05 08:50 45.63012 8.71548 739 ft 0 kts 349°
2026-05-05 08:51 45.63012 8.71547 739 ft 0 kts 349°
2026-05-05 08:51 45.63012 8.71548 739 ft 0 kts 349°
2026-05-05 08:51 45.63012 8.71547 739 ft 0 kts 349°
2026-05-05 08:51 45.63012 8.71548 739 ft 0 kts 349°
2026-05-05 08:52 45.63012 8.71547 739 ft 0 kts 349°
2026-05-05 08:54 45.63012 8.71548 739 ft 0 kts 349°
2026-05-05 08:55 45.63012 8.71547 739 ft 0 kts 349°
2026-05-05 08:56 45.63012 8.71548 739 ft 0 kts 349°
2026-05-05 08:57 45.63012 8.71547 739 ft 0 kts 349°
2026-05-05 08:57 45.63012 8.71548 739 ft 0 kts 349°
2026-05-05 08:58 45.63012 8.71547 739 ft 0 kts 349°
2026-05-05 08:58 45.63012 8.71548 739 ft 0 kts 349°
2026-05-05 08:58 45.63012 8.71547 739 ft 0 kts 349°
2026-05-05 08:59 45.63012 8.71548 739 ft 0 kts 349°
2026-05-05 08:59 45.63012 8.71547 739 ft 0 kts 349°
2026-05-05 09:00 45.63012 8.71548 739 ft 0 kts 349°
2026-05-05 09:00 45.63012 8.71547 739 ft 0 kts 349°
2026-05-05 09:00 45.63012 8.71548 739 ft 0 kts 349°
2026-05-05 09:01 45.63012 8.71547 739 ft 0 kts 349°
2026-05-05 09:01 45.63012 8.71548 739 ft 0 kts 349°
2026-05-05 09:01 45.63012 8.71547 739 ft 0 kts 349°
2026-05-05 09:02 45.63012 8.71548 739 ft 0 kts 349°
2026-05-05 09:02 45.63012 8.71547 739 ft 0 kts 349°
2026-05-05 09:02 45.63012 8.71548 739 ft 0 kts 349°
2026-05-05 09:03 45.63012 8.71547 739 ft 0 kts 349°
2026-05-05 09:03 45.63012 8.71548 739 ft 0 kts 349°
2026-05-05 09:09 45.63012 8.71547 739 ft 0 kts 349°
2026-05-05 09:09 45.63012 8.71548 739 ft 0 kts 349°
2026-05-05 09:12 45.63012 8.71547 739 ft 0 kts 349°
2026-05-05 09:12 45.63012 8.71548 739 ft 0 kts 349°
2026-05-05 09:14 45.63012 8.71547 739 ft 0 kts 349°
2026-05-05 09:14 45.63012 8.71548 739 ft 0 kts 349°
2026-05-05 09:21 45.63008 8.71549 739 ft 2 kts 349°
2026-05-05 09:21 45.62993 8.71553 739 ft 2 kts 348°
2026-05-05 09:21 45.62978 8.71557 739 ft 2 kts 348°
2026-05-05 09:22 45.62964 8.71561 738 ft 2 kts 349°
2026-05-05 09:22 45.62954 8.71564 738 ft 2 kts 348°
2026-05-05 09:22 45.62937 8.71556 738 ft 2 kts 59°
2026-05-05 09:22 45.62934 8.71546 738 ft 1 kts 86°
2026-05-05 09:23 45.62933 8.71538 738 ft 0 kts 80°
2026-05-05 09:25 45.62934 8.71540 738 ft 0 kts 79°
2026-05-05 09:25 45.62935 8.71547 738 ft 2 kts 79°
2026-05-05 09:25 45.62956 8.71699 738 ft 15 kts 82°
2026-05-05 09:26 45.62878 8.71773 737 ft 16 kts 170°
2026-05-05 09:26 45.62756 8.71806 735 ft 19 kts 169°
2026-05-05 09:26 45.62616 8.71845 733 ft 21 kts 170°
2026-05-05 09:26 45.62462 8.71888 730 ft 23 kts 169°
2026-05-05 09:27 45.62300 8.71932 727 ft 24 kts 169°
2026-05-05 09:27 45.62132 8.71978 724 ft 25 kts 168°
2026-05-05 09:27 45.61955 8.72029 719 ft 26 kts 169°
2026-05-05 09:27 45.61775 8.72077 715 ft 26 kts 170°
2026-05-05 09:28 45.61588 8.72129 710 ft 28 kts 169°
2026-05-05 09:28 45.61412 8.72177 706 ft 26 kts 169°
2026-05-05 09:28 45.61230 8.72228 701 ft 27 kts 169°
2026-05-05 09:28 45.61104 8.72262 698 ft 27 kts 169°
2026-05-05 09:29 45.60858 8.72331 695 ft 25 kts 169°
2026-05-05 09:29 45.60693 8.72379 692 ft 22 kts 158°
2026-05-05 09:29 45.60633 8.72569 691 ft 22 kts 96°
2026-05-05 09:29 45.60616 8.72796 690 ft 23 kts 96°
2026-05-05 09:30 45.60600 8.73026 689 ft 23 kts 96°
2026-05-05 09:30 45.60609 8.73248 688 ft 22 kts 50°
2026-05-05 09:30 45.60748 8.73344 689 ft 21 kts 22°
2026-05-05 09:30 45.60885 8.73415 690 ft 20 kts
2026-05-05 09:31 45.61022 8.73384 692 ft 19 kts 350°
2026-05-05 09:31 45.61152 8.73348 694 ft 19 kts 349°
2026-05-05 09:31 45.61289 8.73310 696 ft 21 kts 349°
2026-05-05 09:31 45.61435 8.73268 699 ft 20 kts 348°
2026-05-05 09:32 45.61560 8.73234 701 ft 13 kts 349°
2026-05-05 09:32 45.61615 8.73264 702 ft 10 kts 76°
2026-05-05 09:32 45.61631 8.73373 702 ft 12 kts 79°
2026-05-05 09:32 45.61623 8.73470 701 ft 9 kts 121°
2026-05-05 09:33 45.61586 8.73592 700 ft 14 kts 94°
2026-05-05 09:33 45.61620 8.73727 700 ft 14 kts 33°
2026-05-05 09:33 45.61702 8.73724 702 ft 19 kts 348°
2026-05-05 09:33 45.62100 8.73613 710 ft 94 kts 349°
2026-05-05 09:34 45.62944 8.73376 766 ft 148 kts 349°
2026-05-05 09:34 45.63971 8.73092 1312 ft 154 kts 353°
2026-05-05 09:34 45.65003 8.73301 1970 ft 158 kts 36°
2026-05-05 09:34 45.65583 8.74598 2662 ft 161 kts 70°
2026-05-05 09:35 45.66082 8.76056 3074 ft 174 kts 49°
2026-05-05 09:35 45.68160 8.78389 3879 ft 204 kts 38°
2026-05-05 09:35 45.69326 8.79641 4366 ft 215 kts 39°
2026-05-05 09:36 45.70511 8.80969 5039 ft 222 kts 40°
2026-05-05 09:36 45.71702 8.82370 5847 ft 223 kts 47°
2026-05-05 09:36 45.72527 8.84238 6404 ft 232 kts 77°
2026-05-05 09:36 45.72567 8.86521 7139 ft 234 kts 107°
2026-05-05 09:37 45.71829 8.88534 7982 ft 232 kts 131°
2026-05-05 09:37 45.70822 8.90330 8849 ft 234 kts 129°
2026-05-05 09:37 45.69832 8.92146 9722 ft 234 kts 130°
2026-05-05 09:37 45.68855 8.93948 10614 ft 234 kts 131°
2026-05-05 09:38 45.67864 8.95819 11351 ft 241 kts 131°
2026-05-05 09:38 45.66855 8.97759 12031 ft 249 kts 131°
2026-05-05 09:38 45.65820 8.99767 12709 ft 255 kts 130°
2026-05-05 09:38 45.64918 9.01970 13352 ft 268 kts 114°
2026-05-05 09:39 45.64542 9.04637 13923 ft 283 kts 95°
2026-05-05 09:39 45.64541 9.07533 14299 ft 301 kts 92°
2026-05-05 09:39 45.64585 9.10571 14627 ft 319 kts 92°
2026-05-05 09:39 45.64630 9.13823 14955 ft 336 kts 92°
2026-05-05 09:40 45.64664 9.17208 15465 ft 346 kts 92°
2026-05-05 09:40 45.64693 9.20645 16145 ft 349 kts 92°
2026-05-05 09:40 45.64717 9.24130 16838 ft 352 kts 92°
2026-05-05 09:40 45.64736 9.27610 17479 ft 356 kts 92°
2026-05-05 09:41 45.64753 9.31140 18097 ft 360 kts 93°
2026-05-05 09:41 45.64768 9.34739 18724 ft 363 kts 93°
2026-05-05 09:41 45.64781 9.38353 19341 ft 366 kts 93°
2026-05-05 09:41 45.64792 9.41979 19955 ft 369 kts 93°
2026-05-05 09:42 45.64804 9.45634 20578 ft 371 kts 93°
2026-05-05 09:42 45.64814 9.49326 21178 ft 373 kts 93°
2026-05-05 09:42 45.64821 9.53013 21765 ft 375 kts 93°
2026-05-05 09:42 45.64827 9.56725 22349 ft 377 kts 93°
2026-05-05 09:43 45.64834 9.60445 22906 ft 380 kts 93°
2026-05-05 09:43 45.64984 9.64238 23436 ft 387 kts 81°
2026-05-05 09:43 45.66019 9.67807 23913 ft 399 kts 58°
2026-05-05 09:43 45.67990 9.70678 24438 ft 407 kts 35°
2026-05-05 09:44 45.70541 9.72334 24915 ft 411 kts 13°
2026-05-05 09:44 45.73389 9.72591 25360 ft 412 kts 351°
2026-05-05 09:44 45.76107 9.71376 25792 ft 410 kts 328°
2026-05-05 09:44 45.78298 9.68898 26197 ft 404 kts 307°
2026-05-05 09:45 45.79694 9.65496 26594 ft 397 kts 284°
2026-05-05 09:45 45.80100 9.61642 27016 ft 388 kts 262°
2026-05-05 09:45 45.79478 9.57984 27419 ft 380 kts 241°
2026-05-05 09:45 45.78196 9.54740 27888 ft 380 kts 238°
2026-05-05 09:46 45.77243 9.51144 28264 ft 390 kts 255°
2026-05-05 09:46 45.77081 9.47245 28660 ft 401 kts 272°
2026-05-05 09:46 45.77728 9.43339 29068 ft 412 kts 288°
2026-05-05 09:46 45.79148 9.39753 29422 ft 423 kts 304°
2026-05-05 09:47 45.81256 9.36782 29807 ft 432 kts 320°
2026-05-05 09:47 45.83709 9.34263 30374 ft 429 kts 317°
2026-05-05 09:47 45.85861 9.31356 30839 ft 424 kts 308°
2026-05-05 09:47 45.87756 9.28138 31274 ft 421 kts 303°
2026-05-05 09:48 45.89517 9.24785 31613 ft 422 kts 301°
2026-05-05 09:48 45.91221 9.21404 31910 ft 424 kts 301°
2026-05-05 09:48 45.94785 9.14643 31976 ft 430 kts 308°
2026-05-05 09:49 45.99459 9.09256 31977 ft 439 kts 326°
2026-05-05 09:49 46.05151 9.06057 31977 ft 445 kts 345°
2026-05-05 09:50 46.11328 9.04909 31990 ft 446 kts 352°
2026-05-05 09:50 46.17503 9.04045 31976 ft 446 kts 353°
2026-05-05 09:51 46.23626 9.03244 31974 ft 445 kts 353°
2026-05-05 09:51 46.29817 9.02428 31978 ft 445 kts 353°
2026-05-05 09:52 46.35970 9.01603 31962 ft 446 kts 353°
2026-05-05 09:52 46.42116 9.00778 31962 ft 446 kts 353°
2026-05-05 09:53 46.48303 8.99941 31947 ft 447 kts 353°
2026-05-05 09:53 46.54455 8.99113 31935 ft 447 kts 353°
2026-05-05 09:54 46.60664 8.98278 31931 ft 447 kts 353°
2026-05-05 09:54 46.66806 8.97446 31944 ft 447 kts 354°
2026-05-05 09:55 46.73013 8.96605 31944 ft 447 kts 353°
2026-05-05 09:55 46.79169 8.95767 31959 ft 447 kts 353°
2026-05-05 09:56 46.85344 8.94922 31937 ft 447 kts 354°
2026-05-05 09:56 46.91552 8.94076 31922 ft 447 kts 354°
2026-05-05 09:57 46.97731 8.93231 31907 ft 448 kts 354°
2026-05-05 09:57 47.03904 8.92385 31897 ft 448 kts 354°
2026-05-05 09:58 47.10052 8.91539 31916 ft 448 kts 354°
2026-05-05 09:58 47.16238 8.90687 31920 ft 448 kts 354°
2026-05-05 09:59 47.22394 8.89837 31928 ft 448 kts 354°
2026-05-05 09:59 47.28587 8.89104 31911 ft 448 kts 358°
2026-05-05 10:00 47.34809 8.89271 31907 ft 448 kts
2026-05-05 10:00 47.41040 8.89751 31894 ft 448 kts
2026-05-05 10:01 47.47225 8.90224 31895 ft 448 kts
2026-05-05 10:01 47.53423 8.90678 31897 ft 447 kts
2026-05-05 10:02 47.59649 8.91132 31896 ft 447 kts
2026-05-05 10:02 47.65828 8.91585 31889 ft 447 kts
2026-05-05 10:03 47.72034 8.92037 31892 ft 447 kts
2026-05-05 10:03 47.78257 8.92495 31890 ft 447 kts
2026-05-05 10:04 47.84434 8.92948 31887 ft 447 kts
2026-05-05 10:04 47.90639 8.93407 31881 ft 447 kts
2026-05-05 10:05 47.96846 8.93865 31868 ft 447 kts
2026-05-05 10:05 48.03038 8.94324 31861 ft 447 kts
2026-05-05 10:06 48.09268 8.94787 31856 ft 448 kts
2026-05-05 10:06 48.15452 8.95246 31854 ft 447 kts
2026-05-05 10:07 48.21648 8.96048 31855 ft 448 kts
2026-05-05 10:07 48.27827 8.97006 31853 ft 446 kts
2026-05-05 10:08 48.33971 8.97951 31849 ft 446 kts
2026-05-05 10:08 48.40170 8.98895 31852 ft 447 kts
2026-05-05 10:09 48.46316 8.99835 31854 ft 446 kts
2026-05-05 10:09 48.52484 9.00790 31859 ft 446 kts
2026-05-05 10:10 48.58609 9.01756 31863 ft 446 kts
2026-05-05 10:10 48.61712 9.02218 31709 ft 444 kts
2026-05-05 10:10 48.64780 9.02802 30865 ft 450 kts
2026-05-05 10:11 48.67864 9.03514 29833 ft 457 kts
2026-05-05 10:11 48.70983 9.04269 28986 ft 459 kts
2026-05-05 10:11 48.74119 9.05034 28237 ft 458 kts
2026-05-05 10:11 48.77236 9.05788 27397 ft 446 kts
2026-05-05 10:12 48.80250 9.06511 26282 ft 438 kts
2026-05-05 10:12 48.83233 9.07225 25112 ft 431 kts
2026-05-05 10:12 48.86152 9.07924 23972 ft 423 kts
2026-05-05 10:12 48.89012 9.08535 22890 ft 415 kts
2026-05-05 10:13 48.91846 9.08970 21916 ft 406 kts
2026-05-05 10:13 48.94591 9.09349 21255 ft 390 kts
2026-05-05 10:13 48.97211 9.09709 20909 ft 379 kts
2026-05-05 10:13 48.99844 9.10079 20854 ft 376 kts
2026-05-05 10:14 49.02474 9.10453 20326 ft 385 kts
2026-05-05 10:14 49.05113 9.10825 19786 ft 383 kts
2026-05-05 10:14 49.07737 9.11198 19467 ft 378 kts
2026-05-05 10:14 49.10325 9.11567 19056 ft 375 kts
2026-05-05 10:15 49.12939 9.11940 18599 ft 373 kts
2026-05-05 10:15 49.15504 9.12303 18144 ft 372 kts
2026-05-05 10:15 49.18077 9.12665 17694 ft 369 kts
2026-05-05 10:15 49.20604 9.13030 17254 ft 367 kts
2026-05-05 10:16 49.23139 9.13398 16806 ft 364 kts
2026-05-05 10:16 49.25641 9.13762 16366 ft 362 kts
2026-05-05 10:16 49.28154 9.14202 15919 ft 360 kts
2026-05-05 10:16 49.30568 9.14899 15480 ft 357 kts 13°
2026-05-05 10:17 49.32987 9.15741 15034 ft 355 kts 13°
2026-05-05 10:17 49.35373 9.16600 14595 ft 353 kts 14°
2026-05-05 10:17 49.37760 9.17458 14154 ft 350 kts 13°
2026-05-05 10:17 49.40131 9.18308 13711 ft 348 kts 13°
2026-05-05 10:18 49.42454 9.19138 13281 ft 348 kts 13°
2026-05-05 10:18 49.44858 9.19686 12820 ft 349 kts 359°
2026-05-05 10:18 49.47252 9.19128 12385 ft 348 kts 346°
2026-05-05 10:18 49.49597 9.18198 11882 ft 347 kts 344°
2026-05-05 10:19 49.51908 9.17207 11361 ft 346 kts 343°
2026-05-05 10:19 49.54208 9.16204 10842 ft 344 kts 343°
2026-05-05 10:19 49.56482 9.15204 10327 ft 342 kts 343°
2026-05-05 10:19 49.58756 9.14203 9920 ft 336 kts 343°
2026-05-05 10:20 49.60986 9.13220 9846 ft 334 kts 343°
2026-05-05 10:20 49.63218 9.12234 9845 ft 334 kts 343°
2026-05-05 10:20 49.65449 9.11249 9845 ft 334 kts 343°
2026-05-05 10:20 49.67686 9.10261 9848 ft 333 kts 343°
2026-05-05 10:21 49.69929 9.09272 9844 ft 333 kts 343°
2026-05-05 10:21 49.72126 9.08307 9845 ft 332 kts 343°
2026-05-05 10:21 49.74356 9.07328 9844 ft 333 kts 343°
2026-05-05 10:21 49.76590 9.06346 9841 ft 332 kts 343°
2026-05-05 10:22 49.78814 9.05365 9680 ft 332 kts 343°
2026-05-05 10:22 49.80998 9.04398 9438 ft 326 kts 343°
2026-05-05 10:22 49.83138 9.03447 9181 ft 307 kts 343°
2026-05-05 10:22 49.85121 9.02566 8880 ft 297 kts 343°
2026-05-05 10:23 49.87088 9.01690 8498 ft 291 kts 343°
2026-05-05 10:23 49.89023 9.00826 8127 ft 286 kts 344°
2026-05-05 10:23 49.90948 9.00351 7745 ft 279 kts
2026-05-05 10:23 49.92826 9.00780 7380 ft 267 kts 12°
2026-05-05 10:24 49.94603 9.01390 7014 ft 261 kts 13°
2026-05-05 10:24 49.96337 9.02026 6900 ft 250 kts 13°
2026-05-05 10:24 49.98009 9.02646 6867 ft 249 kts 14°
2026-05-05 10:24 49.99706 9.03276 6855 ft 248 kts 14°
2026-05-05 10:25 50.01381 9.03895 6851 ft 248 kts 14°
2026-05-05 10:25 50.03068 9.04514 6847 ft 248 kts 14°
2026-05-05 10:25 50.04733 9.05122 6849 ft 248 kts 14°
2026-05-05 10:25 50.06424 9.05740 6850 ft 248 kts 14°
2026-05-05 10:26 50.08094 9.06351 6854 ft 249 kts 14°
2026-05-05 10:26 50.09798 9.06877 6840 ft 249 kts
2026-05-05 10:26 50.11486 9.06405 6513 ft 248 kts 332°
2026-05-05 10:26 50.12772 9.04714 6018 ft 242 kts 301°
2026-05-05 10:27 50.13442 9.02357 5538 ft 238 kts 287°
2026-05-05 10:27 50.13859 8.99910 5044 ft 235 kts 274°
2026-05-05 10:27 50.13558 8.97443 4549 ft 237 kts 247°
2026-05-05 10:27 50.12907 8.95091 4131 ft 235 kts 246°
2026-05-05 10:28 50.12287 8.92835 4000 ft 215 kts 247°
2026-05-05 10:28 50.11755 8.90805 3979 ft 192 kts 248°
2026-05-05 10:28 50.11294 8.88972 4078 ft 177 kts 249°
2026-05-05 10:28 50.10848 8.87158 4072 ft 177 kts 249°
2026-05-05 10:29 50.10416 8.85375 3877 ft 177 kts 250°
2026-05-05 10:29 50.09988 8.83596 3640 ft 176 kts 250°
2026-05-05 10:29 50.09560 8.81813 3405 ft 176 kts 250°
2026-05-05 10:29 50.09134 8.80031 3173 ft 175 kts 250°
2026-05-05 10:30 50.08706 8.78247 2935 ft 173 kts 250°
2026-05-05 10:30 50.08293 8.76526 2711 ft 171 kts 250°
2026-05-05 10:30 50.07876 8.74785 2503 ft 172 kts 250°
2026-05-05 10:30 50.07470 8.73094 2270 ft 158 kts 250°
2026-05-05 10:31 50.07104 8.71574 2062 ft 146 kts 250°
2026-05-05 10:31 50.06820 8.70075 1841 ft 142 kts 262°
2026-05-05 10:31 50.06673 8.68627 1628 ft 130 kts 259°
2026-05-05 10:31 50.06473 8.67272 1386 ft 129 kts 255°
2026-05-05 10:32 50.06216 8.65935 1259 ft 129 kts 252°
2026-05-05 10:32 50.05927 8.64597 1178 ft 130 kts 251°
2026-05-05 10:32 50.05616 8.63272 1056 ft 130 kts 249°
2026-05-05 10:32 50.05288 8.61960 858 ft 130 kts 250°
2026-05-05 10:33 50.04975 8.60646 634 ft 130 kts 250°
2026-05-05 10:33 50.04664 8.59333 465 ft 130 kts 249°
2026-05-05 10:33 50.04353 8.58032 374 ft 124 kts 250°
2026-05-05 10:33 50.04114 8.57033 364 ft 74 kts 251°
2026-05-05 10:34 50.03992 8.56502 353 ft 38 kts 258°
2026-05-05 10:34 50.04010 8.56219 354 ft 15 kts 279°
2026-05-05 10:34 50.04015 8.56169 354 ft 0 kts 279°
2026-05-05 10:35 50.04015 8.56168 354 ft 0 kts 279°
2026-05-05 10:35 50.04017 8.56150 354 ft 3 kts 280°
2026-05-05 10:36 50.04042 8.56098 354 ft 8 kts 358°
2026-05-05 10:36 50.04084 8.56129 356 ft 4 kts 37°
2026-05-05 10:36 50.04110 8.56207 357 ft 14 kts 69°
2026-05-05 10:36 50.04145 8.56351 359 ft 14 kts 71°
2026-05-05 10:37 50.04183 8.56516 360 ft 17 kts 70°
2026-05-05 10:37 50.04229 8.56702 363 ft 19 kts 69°
2026-05-05 10:37 50.04275 8.56896 368 ft 19 kts 70°
2026-05-05 10:37 50.04324 8.57100 369 ft 21 kts 70°
2026-05-05 10:38 50.04378 8.57330 370 ft 23 kts 70°
2026-05-05 10:38 50.04439 8.57583 368 ft 25 kts 70°
2026-05-05 10:38 50.04498 8.57831 373 ft 20 kts 70°
2026-05-05 10:38 50.04522 8.57930 374 ft 4 kts 70°
2026-05-05 10:39 50.04525 8.57943 375 ft 0 kts 70°
2026-05-05 10:40 50.04530 8.57965 375 ft 7 kts 70°
2026-05-05 10:40 50.04562 8.58101 376 ft 17 kts 69°
2026-05-05 10:40 50.04604 8.58274 378 ft 18 kts 70°
2026-05-05 10:40 50.04651 8.58471 374 ft 21 kts 70°
2026-05-05 10:41 50.04709 8.58703 366 ft 24 kts 65°
2026-05-05 10:41 50.04758 8.58901 363 ft 10 kts 70°
2026-05-05 10:41 50.04794 8.58933 364 ft 6 kts 340°
2026-05-05 10:41 50.04821 8.58918 364 ft 2 kts 339°
2026-05-05 10:42 50.04842 8.58906 365 ft 2 kts 340°
2026-05-05 10:42 50.04856 8.58898 366 ft 0 kts 340°